Flag for Germany Weather past 2 weeks in Zweibrücken, Rhineland-Palatinate, Germany

Now
32 °F

Passing clouds.


Feels Like: 32 °F
Forecast: 31 / 47 °F
Wind: 2 mph from Southwest

Location: Saarbruecken / Ensheim

Current Time: Mar 5, 2015 at 5:52:25 AM

Latest Report: Mar 5, 2015 at 5:20 AM


Visibility: N/A

Pressure: 30.54 "Hg

Humidity: 93%

Dew point: 30 °F

Location of ZweibrückenLocation

Historic Weather in Zweibrücken — Graph

°F

Zweibrücken temperature yesterday

Maximum temperature yesterday: 43 °F (at 1:50 PM)
Minimum temperature yesterday: 32 °F (at 9:20 PM)
Average temperature yesterday: 37 °F

Past Weeks' High & Low Weather Summary

 TemperatureHumidityPressure
High52 °F (Feb 20, 3:50 PM)100% (Feb 19, 9:20 AM)30.69 "Hg (Feb 19, 9:20 AM)
Low27 °F (Feb 28, 5:50 AM)39% (Feb 28, 2:50 PM)29.45 "Hg (Feb 23, 12:50 PM)
Average38 °F83%29.98 "Hg
* Reported Feb 18 4:20 AM — Mar 5 4:20 AM, Zweibrücken, Weather by CustomWeather, © 2015

Note: Actual official high and low records may vary slightly from our data, if they occured in-between our weather recording intervals... More about our weather records

Advertising

Zweibrücken weather history for previous 24 hours

 ConditionsComfort  
Time TempWeatherWind HumidityBarometerVisibility
4:20 AM
Thu, Mar 5
32 °FPassing clouds.5 mph87%30.51 "HgN/A
3:50 AM34 °FPassing clouds.2 mph87%30.51 "HgN/A
2:50 AM34 °FPassing clouds.6 mph87%30.51 "HgN/A
2:20 AM34 °FPassing clouds.6 mph87%30.51 "HgN/A
1:50 AM34 °FPassing clouds.6 mph87%30.51 "HgN/A
1:20 AM34 °FPassing clouds.6 mph87%30.48 "HgN/A
12:50 AM32 °FPassing clouds.3 mph93%30.48 "HgN/A
12:20 AM32 °FPassing clouds.6 mph93%30.48 "HgN/A
11:50 PM
Wed, Mar 4
32 °FPassing clouds.5 mph93%30.48 "HgN/A
11:20 PM32 °FClear.8 mph87%30.45 "Hg10 mi
10:20 PM32 °FClear.7 mph87%30.45 "Hg10 mi
9:50 PM32 °FClear.6 mph87%30.42 "Hg10 mi
9:20 PM32 °FClear.5 mph87%30.42 "Hg10 mi
8:50 PM34 °FClear.7 mph87%30.42 "Hg10 mi
8:20 PM36 °FPassing clouds.5 mph81%30.42 "HgN/A
7:50 PM36 °FPassing clouds.6 mph81%30.39 "HgN/A
7:20 PM37 °FPassing clouds.7 mph75%30.39 "HgN/A
6:50 PM39 °FPassing clouds.9 mph65%30.39 "HgN/A
6:20 PM39 °FScattered showers. Passing clouds.8 mph65%30.36 "HgN/A
5:50 PM39 °FScattered clouds.9 mph65%30.33 "HgN/A
5:20 PM41 °FScattered clouds.9 mph61%30.33 "HgN/A
4:50 PM41 °FScattered clouds.12 mph61%30.33 "HgN/A
4:20 PM41 °FScattered clouds.13 mph66%30.33 "HgN/A
3:50 PM43 °FScattered clouds.14 mph57%30.33 "HgN/A
3:20 PM43 °FPartly sunny.13 mph71%30.33 "HgN/A
2:50 PM41 °FPartly sunny.10 mph70%30.30 "HgN/A
2:20 PM41 °FPartly sunny.14 mph70%30.30 "HgN/A
1:50 PM43 °FScattered clouds.10 mph66%30.30 "HgN/A
1:20 PM41 °FScattered clouds.13 mph66%30.33 "HgN/A
12:50 PM39 °FScattered clouds.10 mph70%30.33 "HgN/A
12:20 PM39 °FScattered clouds.12 mph75%30.33 "HgN/A
11:50 AM39 °FBroken clouds.10 mph75%30.33 "HgN/A
11:20 AM39 °FPartly sunny.13 mph70%30.33 "HgN/A
10:50 AM37 °FBroken clouds.12 mph81%30.30 "HgN/A
10:20 AM37 °FBroken clouds.12 mph75%30.30 "HgN/A
9:50 AM36 °FScattered clouds.13 mph87%30.30 "HgN/A
9:20 AM36 °FBroken clouds.13 mph87%30.30 "HgN/A
8:50 AM36 °FBroken clouds.12 mph87%30.30 "HgN/A
8:20 AM36 °FBroken clouds.8 mph87%30.27 "HgN/A
7:50 AM34 °FBroken clouds.8 mph93%30.27 "HgN/A
7:20 AM34 °FBroken clouds.7 mph87%30.24 "HgN/A
6:50 AM34 °FPassing clouds.8 mph93%30.24 "HgN/A
6:20 AM36 °FPartly cloudy.9 mph87%30.24 "HgN/A
5:50 AM36 °FPartly cloudy.8 mph87%30.24 "HgN/A
5:20 AM36 °FPassing clouds.5 mph87%30.24 "HgN/A
Weather by CustomWeather, © 2015

See weather overviewHow to use our weather pages